Regional Weather Roundup
Issued by NWS

Home | Current Version | Previous Version | Text Only | Print | Product List | Glossary Off
Versions: 1 2 3 4 5 6 7 8 9 10 11 12 13 14 15 16 17 18 19 20 21 22 23 24 25 26 27 28 29 30 31 32 33 34 35 36 37 38 39 40 41 42 43 44 45 46 47 48 49 50

000
ASUS45 KCYS 260910
RWRWY

WYOMING REGIONAL WEATHER ROUNDUP
NATIONAL WEATHER SERVICE CHEYENNE WY
300 AM MDT TUE MAY 26 2015

NOTE:  "FAIR" INDICATES FEW OR NO CLOUDS BELOW 12,000 FEET
WITH NO SIGNIFICANT WEATHER AND/OR OBSTRUCTIONS TO VISIBILITY.

WYZ001-261000-
YELLOWSTONE NATIONAL PARK

CITY           SKY/WX    TMP DP  RH WIND       PRES   REMARKS
LK YELLOWSTONE   N/A     33  32  96 NW3       30.09S
W YELLOWSTONE  NOT AVBL

$$
WYZ002>013-054>058-071-098>099-261000-
NORTHERN WYOMING

CITY           SKY/WX    TMP DP  RH WIND       PRES   REMARKS
JACKSON        CLOUDY    43  41  93 CALM      30.04F
CODY           FAIR      48  43  81 SW9       29.93S
GREYBULL       FAIR      50  46  86 SE3       29.92R
WORLAND        FAIR      47  44  90 CALM      29.92S
SHERIDAN       FAIR      41  39  93 CALM      29.93R
BUFFALO        FAIR      43  39  86 SW6       29.96S
GILLETTE       FAIR      45  43  93 S5        29.95S
HULETT         FOG       45  45 100 CALM      29.97S VSB 1/4
NEWCASTLE      CLOUDY    50  50 100 SE7       29.97S

$$
WYZ014>020-022>026-101>103-261000-
CENTRAL WYOMING

CITY           SKY/WX    TMP DP  RH WIND       PRES   REMARKS
BIG PINEY      FAIR      37  34  89 N5        30.06F WCI  33
PINEDALE       CLOUDY    39  39 100 CALM      30.08R
DUBOIS         FAIR      37  36  93 W13       30.04S WCI  29
LANDER         FAIR      46  37  71 SW8       29.98R
RIVERTON       FAIR      45  42  89 NW9       29.99R
CASPER         FAIR      42  40  92 W7        29.98F
DOUGLAS        FAIR      43  41  93 CALM      29.98S

$$
WYZ021-027>030-104>119-261000-
SOUTHERN WYOMING

CITY           SKY/WX    TMP DP  RH WIND       PRES   REMARKS
EVANSTON       MOCLDY    41  37  86 SW6       30.07F
KEMMERER       FAIR      37  36  93 NW9       30.08S WCI  31
FORT BRIDGER   SUNNY     43  39  87 SW10      30.09F
ROCK SPRINGS   FAIR      42  38  85 SW8       30.06S
DIXON          FAIR      40  38  91 CALM      30.10S
RAWLINS        CLOUDY    42  38  85 W3        30.06R
SARATOGA       PTSUNNY   39  36  87 MISG      30.08S
LARAMIE        CLOUDY    38  36  92 E3        30.05F
CHEYENNE       FAIR      43  38  82 W7        30.01F
TORRINGTON     FAIR      47  46  97 NW3       29.95S
PINE BLUFFS    FAIR      43  41  93 CALM      30.00S

$$



USA.gov is the U.S. government's official web portal to all federal, state and local government web resources and services.